Weather History for Wausau, WI

Change the Weather History Date:

Monday, June 17, 2013

  Actual Average Record
Temperature  
Mean Temperature 66 °F 66 °F  
Max Temperature 78 °F 76 °F 94 °F (1994)
Min Temperature 53 °F 55 °F 38 °F (1903)
Degree Days  
Heating Degree Days 0 2  
Month to date heating degree days 77 66  
Since 1 June heating degree days 77 66  
Since 1 July heating degree days 8243 8226  
Cooling Degree Days 1 3  
Month to date cooling degree days 19 33  
Year to date cooling degree days 56 52  
Since 1 June cooling degree days 19 33  
Growing Degree Days 16 (Base 50)    
Moisture  
Dew Point 56 °F    
Average Humidity 74    
Maximum Humidity 97    
Minimum Humidity 50    
Precipitation  
Precipitation 0.11 in 0.14 in 3.38 in (1996)
Month to date precipitation 3.06 2.51  
Year to date precipitation 17.53 12.42  
Snow  
Snow 0.00 in 0.00 in 0.00 in (2010)
Month to date snowfall 0.0 0.0  
Since 1 June snowfall 0.0 0.0  
Since 1 July snowfall 78.8 59.6  
Snow Depth 0.00 in    
Sea Level Pressure  
Sea Level Pressure 29.93 in    
Wind  
Wind Speed 6 mph (ENE)    
Max Wind Speed 18 mph    
Max Gust Speed 26 mph    
Visibility 10 miles    
Events Rain , Thunderstorm    
T = Trace of Precipitation, MM = Missing Value Source: NWS Daily Summary

Daily Weather History Graph

Daily Weather History Graph

Search for Another Location

Airport:

Trip Planner

Search our weather history database for the weather conditions in past years. The results will help you decide how hot, cold, wet, or windy it might be!

Date:

Astronomy

Jun. 17, 2013 Rise Set
Actual Time 5:11 AM CDT 8:47 PM CDT
Civil Twilight 4:34 AM CDT 9:24 PM CDT
Nautical Twilight 3:44 AM CDT 10:14 PM CDT
Astronomical Twilight 2:39 AM CDT 11:20 PM CDT
Moon 2:13 PM CDT (6/17) 1:02 AM CDT (6/17)
Length of Visible Light 16h 50m
Length of Day
15h 36m
First Quarter, 60% of the Moon is Illuminated
Jun 17
First Quarter
Jun 23
Full
Jun 29
Last Quarter
Jul 8
New
Jul 15
First Quarter

Hourly Weather History & Observations

Time (CDT) Temp. Dew Point Humidity Pressure Visibility Wind Dir Wind Speed Gust Speed Precip Events Conditions
12:54 AM 57.9 °F 51.1 °F 78% 29.88 in 10.0 mi Calm Calm - N/A   Clear
1:54 AM 59.0 °F 51.1 °F 75% 29.90 in 10.0 mi North 5.8 mph - N/A   Clear
2:54 AM 54.0 °F 50.0 °F 86% 29.90 in 10.0 mi Variable 4.6 mph - N/A   Partly Cloudy
3:54 AM 54.0 °F 51.1 °F 90% 29.88 in 10.0 mi ESE 4.6 mph - N/A   Clear
4:54 AM 55.9 °F 51.1 °F 84% 29.86 in 10.0 mi SSE 6.9 mph - N/A   Clear
5:54 AM 57.0 °F 51.1 °F 81% 29.88 in 10.0 mi Calm Calm - N/A   Clear
6:54 AM 59.0 °F 53.1 °F 81% 29.88 in 10.0 mi ENE 3.5 mph - N/A   Mostly Cloudy
7:54 AM 63.0 °F 53.1 °F 70% 29.88 in 10.0 mi Calm Calm - N/A   Clear
8:54 AM 66.9 °F 54.0 °F 63% 29.89 in 10.0 mi South 3.5 mph - N/A   Clear
9:54 AM 70.0 °F 55.0 °F 59% 29.90 in 10.0 mi Calm Calm - N/A   Clear
10:54 AM 73.0 °F 55.0 °F 53% 29.91 in 10.0 mi Variable 5.8 mph - N/A   Clear
11:54 AM 75.0 °F 55.0 °F 50% 29.91 in 10.0 mi Variable 4.6 mph - N/A   Partly Cloudy
12:54 PM 69.1 °F 61.0 °F 75% 29.91 in 10.0 mi NNW 3.5 mph - 0.07 in Rain Light Rain
1:54 PM 73.0 °F 59.0 °F 61% 29.90 in 10.0 mi NW 4.6 mph - 0.01 in Rain Light Rain
2:54 PM 78.1 °F 55.9 °F 46% 29.91 in 10.0 mi WNW 16.1 mph - 0.00 in   Partly Cloudy
3:01 PM 71.6 °F 55.4 °F 57% 29.91 in 10.0 mi North 16.1 mph 26.5 mph 0.00 in Rain , Thunderstorm Light Rain
3:13 PM 68.0 °F 51.8 °F 56% 29.92 in 10.0 mi NNE 9.2 mph 24.2 mph 0.00 in Thunderstorm Mostly Cloudy
3:29 PM 68.0 °F 55.4 °F 64% 29.93 in 10.0 mi NNE 10.4 mph 16.1 mph 0.00 in Thunderstorm Overcast
3:54 PM 71.1 °F 55.9 °F 59% 29.94 in 10.0 mi NNE 9.2 mph - 0.00 in Thunderstorm Partly Cloudy
4:13 PM 69.8 °F 57.2 °F 64% 29.93 in 10.0 mi NE 8.1 mph - N/A   Partly Cloudy
4:54 PM 72.0 °F 57.9 °F 61% 29.94 in 10.0 mi East 8.1 mph - N/A   Mostly Cloudy
5:54 PM 70.0 °F 57.9 °F 65% 29.94 in 10.0 mi ENE 4.6 mph - N/A   Scattered Clouds
6:54 PM 66.9 °F 60.1 °F 79% 29.94 in 10.0 mi ENE 6.9 mph - 0.00 in Rain Light Rain
7:54 PM 64.9 °F 59.0 °F 81% 29.95 in 10.0 mi East 11.5 mph - 0.00 in   Mostly Cloudy
8:54 PM 62.1 °F 60.1 °F 93% 29.97 in 10.0 mi East 8.1 mph - N/A   Mostly Cloudy
9:54 PM 61.0 °F 59.0 °F 93% 30.00 in 10.0 mi East 6.9 mph - N/A   Mostly Cloudy
10:47 PM 60.8 °F 59.0 °F 94% 30.01 in 10.0 mi East 5.8 mph - 0.01 in   Overcast
10:54 PM 61.0 °F 59.0 °F 93% 30.01 in 10.0 mi East 5.8 mph - 0.01 in   Overcast
11:04 PM 60.8 °F 57.2 °F 88% 30.01 in 10.0 mi ENE 6.9 mph - N/A   Overcast
11:12 PM 60.8 °F 57.2 °F 88% 30.02 in 6.0 mi East 9.2 mph - 0.01 in Rain Rain
11:24 PM 60.8 °F 57.2 °F 88% 30.02 in 8.0 mi ENE 6.9 mph - 0.01 in Rain Light Rain
11:54 PM 60.1 °F 57.0 °F 90% 30.03 in 10.0 mi ENE 5.8 mph - 0.02 in   Overcast